Regional Weather Roundup
Issued by NWS Cleveland, OH

Home | Current Version | Previous Version | Graphics & Text | Print | Product List | Glossary On
Versions: 1 2 3 4 5 6 7 8 9 10 11 12 13 14 15 16 17 18 19 20 21 22 23 24 25 26 27 28 29 30 31 32 33 34 35 36 37 38 39 40 41 42 43 44 45 46 47 48 49 50
000
ASUS41 KCLE 070810
RWRCLE
OHIO REGIONAL WEATHER ROUNDUP
NATIONAL WEATHER SERVICE CLEVELAND, OH
300 AM EST WED DEC 07 2016

NOTE: "FAIR" INDICATES FEW OR NO CLOUDS BELOW 12,000 FEET WITH NO
SIGNIFICANT WEATHER AND/OR OBSTRUCTIONS TO VISIBILITY.

OHZ001>008-015>018-024>027-034-035-043-044-070900-
   NORTHWEST OHIO

CITY           SKY/WX    TMP DP  RH WIND       PRES   REMARKS
DEFIANCE       CLEAR     31  22  69 W7G18     30.00R WCI  24
FINDLAY        PTCLDY    30  24  78 W14       29.99R WCI  19
TOLEDO EXPRESS PTCLDY    30  27  88 SW14      29.96R WCI  19
TOLEDO EXEC    PTCLDY    32  27  81 W17G24    29.98R WCI  21
LIMA           PTCLDY    30  26  85 W20G25    30.01R WCI  17
$$

OHZ009>014-019>023-028>033-038-089-070900-
   NORTHEAST OHIO

CITY           SKY/WX    TMP DP  RH WIND       PRES   REMARKS
CLE-HOPKINS    MOCLDY    37  29  72 W14G24    29.97R
CLE-LAKEFRONT  CLOUDY    38  31  76 SW18      29.95R
CUY CO. ARPT   NOT AVBL
LORAIN-ELYRIA  MOCLDY    33  27  78 W14G24    29.97R WCI  23
ASHTABULA      CLOUDY    39  35  86 W14       29.90R
AKRON-CANTON   CLOUDY    37  29  72 W12G21    29.94R
WOOSTER        MOCLDY    33  26  75 W14G23    29.97R WCI  23
MANSFIELD      MOCLDY    31  27  85 W12G22    29.97R WCI  22
YOUNGSTOWN     CLOUDY    37  32  82 W12       29.92R
$$

OHZ042-051>053-060>062-070>072-077>081-070900-
  SOUTHWEST OHIO

CITY           SKY/WX    TMP DP  RH WIND       PRES   REMARKS
CINC-COVINGTON PTCLDY    32  29  88 SW3       30.07R
CINC-LUNKEN    MOCLDY    35  29  78 W7        30.10R WCI  29
HAMILTON       PTCLDY    27  24  89 CALM      30.08S
DAYTON         PTCLDY    29  25  85 W7        30.04R WCI  22
WRIGHT-PAT AFB CLEAR     30  27  90 W6        30.05R WCI  24
DAYTON GENERAL CLEAR     30  25  81 SW3       30.04R
WILMINGTON     CLEAR     31  27  85 W7        30.05R WCI  24
$$

OHZ036-037-039>041-045>050-054>059-063>069-073>076-082>088-070900-
  CENTRAL AND SOUTHEAST OHIO

CITY           SKY/WX    TMP DP  RH WIND       PRES   REMARKS
COLUMBUS       CLOUDY    33  29  85 W8        30.03R WCI  26
OSU AIRPORT    PTCLDY    32  28  85 W7        30.03R WCI  26
BOLTON FIELD   CLOUDY    32  28  86 W9        30.04R WCI  24
RICKENBACK AFB   N/A     31  28  90 W7        30.04R WCI  24
NEWARK         MOCLDY    33  28  81 W6        30.02R WCI  28
MARION         PTCLDY    32  25  75 W13       30.01R WCI  22
LANCASTER      PTCLDY    33  29  85 W6        30.04R WCI  28
ZANESVILLE     MOCLDY    38  32  79 W8        30.00R
NEW PHILLY     NOT AVBL
$$




USA.gov is the U.S. government's official web portal to all federal, state and local government web resources and services.